Weather History for Patuxent River, MD

Change the Weather History Date:

Wednesday, March 6, 2013

  Actual Average Record
Temperature  
Mean Temperature 39 °F -  
Max Temperature 43 °F 49 °F 71 °F (2004)
Min Temperature 35 °F 33 °F 21 °F (1978)
Degree Days  
Heating Degree Days 26    
Moisture  
Dew Point 35 °F    
Average Humidity 84    
Maximum Humidity 89    
Minimum Humidity 62    
Precipitation  
Precipitation 1.28 in - - ()
Sea Level Pressure  
Sea Level Pressure 29.65 in    
Wind  
Wind Speed 22 mph (North)    
Max Wind Speed 39 mph    
Max Gust Speed 53 mph    
Visibility 5 miles    
Events Rain , Snow    
Averages and records for this station are not official NWS values.
T = Trace of Precipitation, MM = Missing Value Source: NWS Daily Summary

Daily Weather History Graph

Daily Weather History Graph

Search for Another Location

Airport:

Trip Planner

Search our weather history database for the weather conditions in past years. The results will help you decide how hot, cold, wet, or windy it might be!

Date:

Astronomy

Mar. 06, 2013 Rise Set
Actual Time 6:30 AM EST 6:04 PM EST
Civil Twilight 6:03 AM EST 6:30 PM EST
Nautical Twilight 5:33 AM EST 7:01 PM EST
Astronomical Twilight 5:02 AM EST 7:31 PM EST
Moon 2:33 AM EST (3/6) 12:47 PM EST (3/6)
Length of Visible Light 12h 26m
Length of Day
11h 34m
Waning Crescent, 30% of the Moon is Illuminated
Mar 6
Waning Crescent
Mar 11
New
Mar 19
First Quarter
Mar 27
Full
Apr 3
Last Quarter

Hourly Weather History & Observations

Time (EST) Temp. Windchill Dew Point Humidity Pressure Visibility Wind Dir Wind Speed Gust Speed Precip Events Conditions
12:52 AM 36.0 °F 27.5 °F 30.9 °F 82% 29.78 in 4.0 mi ENE 12.7 mph - 0.03 in Snow Light Snow
1:23 AM 35.6 °F 27.5 °F 30.2 °F 81% 29.73 in 3.0 mi ENE 11.5 mph - 0.03 in Snow Light Snow
1:41 AM 35.6 °F 25.5 °F 30.2 °F 81% 29.71 in 3.0 mi ENE 17.3 mph 23.0 mph 0.05 in Snow Light Snow
1:52 AM 35.1 °F 25.5 °F 32.0 °F 89% 29.72 in 3.0 mi ENE 15.0 mph - 0.07 in Snow Light Snow
2:52 AM 37.0 °F 26.7 °F 34.0 °F 89% 29.64 in 6.0 mi NE 19.6 mph 26.5 mph 0.07 in Rain Rain
3:52 AM 39.0 °F 30.6 °F 35.1 °F 86% 29.63 in 3.0 mi ENE 15.0 mph 24.2 mph 0.05 in Rain Rain
4:52 AM 39.9 °F 30.8 °F 36.0 °F 86% 29.59 in 8.0 mi ENE 18.4 mph 24.2 mph 0.01 in Rain Light Rain
5:09 AM 39.2 °F 30.2 °F 35.6 °F 87% 29.58 in 8.0 mi NE 17.3 mph - 0.00 in Rain Light Rain
5:52 AM 39.9 °F 30.8 °F 36.0 °F 86% 29.57 in 8.0 mi NE 18.4 mph 24.2 mph 0.00 in Rain Light Rain
6:52 AM 39.9 °F 30.0 °F 36.0 °F 86% 29.51 in 10.0 mi NE 21.9 mph 33.4 mph 0.02 in Rain Light Rain
7:52 AM 42.1 °F 32.1 °F 37.0 °F 82% 29.48 in 4.0 mi NE 25.3 mph 36.8 mph 0.07 in Rain Light Rain
8:52 AM 43.0 °F 32.7 °F 37.9 °F 82% 29.46 in 4.0 mi NE 28.8 mph 41.4 mph 0.05 in Rain Rain
9:52 AM 43.0 °F 33.1 °F 39.0 °F 86% 29.45 in 4.0 mi NNE 26.5 mph 38.0 mph N/A Rain Rain
10:52 AM 43.0 °F 32.4 °F 37.9 °F 82% 29.44 in 3.0 mi North 31.1 mph 42.6 mph 0.13 in Rain Rain
11:52 AM 39.0 °F 27.2 °F 35.1 °F 86% 29.44 in 3.0 mi North 29.9 mph 44.9 mph 0.07 in Rain Rain
12:36 PM 39.2 °F 27.0 °F 35.6 °F 87% 29.47 in 2.0 mi North 32.2 mph 46.0 mph 0.10 in Rain Heavy Rain
12:52 PM 39.0 °F 26.8 °F 35.1 °F 86% 29.46 in 2.0 mi North 32.2 mph 46.0 mph 0.17 in Rain Heavy Rain
1:38 PM 39.2 °F 27.6 °F 35.6 °F 87% 29.48 in 1.5 mi North 28.8 mph 42.6 mph N/A Rain Heavy Rain
1:52 PM 37.9 °F 25.1 °F 35.1 °F 89% 29.49 in 1.5 mi North 33.4 mph 47.2 mph N/A Rain Heavy Rain
2:36 PM 37.4 °F 24.4 °F 33.8 °F 87% 29.53 in 2.5 mi North 33.4 mph 44.9 mph 0.12 in Rain , Snow Light Rain
2:52 PM 37.0 °F 23.9 °F 34.0 °F 89% 29.55 in 2.0 mi North 33.4 mph 47.2 mph 0.22 in Rain , Snow Light Rain
3:30 PM 39.2 °F 26.6 °F 35.6 °F 87% 29.59 in 4.0 mi North 34.5 mph 43.7 mph 0.11 in Rain Rain
3:52 PM 39.0 °F 26.8 °F 36.0 °F 89% 29.61 in 4.0 mi North 32.2 mph 44.9 mph 0.13 in Rain Rain
4:52 PM 39.0 °F 25.7 °F 36.0 °F 89% 29.67 in 6.0 mi NNW 39.1 mph 52.9 mph 0.03 in Rain Light Rain
5:04 PM 39.2 °F 26.1 °F 35.6 °F 87% 29.68 in 4.0 mi NNW 38.0 mph 48.3 mph 0.00 in Rain Light Rain
5:52 PM 39.0 °F 26.4 °F 36.0 °F 89% 29.75 in 4.0 mi NNW 34.5 mph 43.7 mph 0.04 in Rain Light Rain
6:52 PM 39.9 °F 27.5 °F 37.0 °F 89% 29.81 in 6.0 mi NNW 35.7 mph 47.2 mph 0.06 in Rain Light Rain
7:52 PM 39.9 °F 28.2 °F 37.0 °F 89% 29.83 in 8.0 mi NNW 31.1 mph 39.1 mph 0.03 in Rain Light Rain
8:52 PM 39.0 °F 28.3 °F 34.0 °F 82% 29.87 in 10.0 mi NNW 24.2 mph 41.4 mph 0.02 in Rain Light Rain
9:27 PM 39.2 °F 28.3 °F 33.8 °F 81% 29.88 in 10.0 mi NNW 25.3 mph 33.4 mph 0.01 in   Overcast
9:52 PM 39.9 °F 29.5 °F 33.1 °F 77% 29.90 in 10.0 mi NNW 24.2 mph 31.1 mph 0.01 in   Overcast
10:52 PM 41.0 °F 31.1 °F 30.9 °F 67% 29.91 in 10.0 mi NNW 23.0 mph 36.8 mph N/A   Overcast
10:59 PM 41.0 °F 31.1 °F 30.2 °F 65% 29.91 in 10.0 mi NNW 23.0 mph 38.0 mph N/A   Overcast
11:52 PM 41.0 °F 30.9 °F 28.9 °F 62% 29.92 in 10.0 mi NNW 24.2 mph 35.7 mph N/A   Overcast